Regional Weather Roundup
Issued by NWS

Home | Current Version | Previous Version | Graphics & Text | Print | Product List | Glossary On
Versions: 1 2 3 4 5 6 7 8 9 10 11 12 13 14 15 16 17 18 19 20 21 22 23 24 25 26 27 28 29 30 31 32 33 34 35 36 37 38 39 40 41 42 43 44 45 46 47 48 49 50
000
ASUS45 KBOU 270207
RWRCO

WEATHER ROUNDUP FOR COLORADO
NATIONAL WEATHER SERVICE DENVER/BOULDER CO
800 PM MDT THU MAY 26 2016

NOTE: "FAIR" INDICATES FEW OR NO CLOUDS BELOW 12000 FEET WITH NO
SIGNIFICANT WEATHER AND/OR OBSTRUCTIONS TO VISIBILITY.

COZ001>005-013-030-031-270300-
...NORTHWEST COLORADO...

CITY           SKY/WX    TMP DP  RH WIND       PRES   REMARKS
CRAIG          FAIR      51  38  60 S3        29.93R
HAYDEN         CLOUDY    52  30  43 S5        29.95R
MEEKER         FAIR      53  36  52 NE8       29.94R
MOUNT WERNER   NOT AVBL
STEAMBOAT SPGS CLOUDY    49  34  56 SE6       29.96R
WALDEN         FAIR      43  32  65 W5        30.02R
$$

COZ006>008-011-270300-
...WEST CENTRAL VALLEYS...

CITY           SKY/WX    TMP DP  RH WIND       PRES   REMARKS
GRAND JUNCTION MOCLDY    61  32  33 NW24      29.89R
MONTROSE       CLOUDY    60  29  30 SW8       29.91R
EAGLE          CLOUDY    46  43  87 N15G22    30.02R
RIFLE          CLOUDY    60  32  34 S5        29.90R
DELTA          FAIR      65  30  26 NE12      29.88R
NUCLA          FAIR      57  30  35 W10       29.96R
$$

COZ017>023-064>068-270300-
...SOUTHWEST COLORADO...

CITY           SKY/WX    TMP DP  RH WIND       PRES   REMARKS
DURANGO        FAIR      53  26  35 NW8       29.93R
CORTEZ         FAIR      54  33  45 SW10      29.95R
PAGOSA SPRINGS FAIR      48  28  46 NE5       29.97R
TELLURIDE      NOT AVBL
WOLF CREEK PAS CLOUDY    28  19  69 NW5       30.13S WCI  23
$$

COZ009-010-012-014-032>034-037-058>063-270300-
...CENTRAL COLORADO...

CITY           SKY/WX    TMP DP  RH WIND       PRES   REMARKS
ASPEN          MOCLDY    47  32  56 NE7       29.99R
BUENA VISTA    LGT RAIN  45  35  68 E7        29.99
COPPER MTN     NOT AVBL
BERTHOUD PASS  HAZE      25  16  68 N8        30.14R VSB 1/4 WCI  16
COTTONWOOD PAS FLURRIES  39  32  75 SW9       30.04R
GUNNISON       FAIR      46  30  53 SW7       30.00R
KREMMLING      MOCLDY    50  32  50 SW8       29.99R
LEADVILLE      LGT SNOW  35  30  82 NW9       30.05R WCI  28
MONARCH PASS   SNOW      28  28 100 MISG      30.21R VSB 1/4
SALIDA         CLOUDY    46  38  75 NW15G21   30.06
SUNLIGHT       CLOUDY    36  30  80 CALM      30.13R
WILKERSON PASS SNOW      32  30  93 NW3       30.12R VSB 1/4
$$

COZ069>075-270300-
...SAN LUIS VALLEY/SANGRE DE CRISTO MOUNTAINS...

CITY           SKY/WX    TMP DP  RH WIND       PRES   REMARKS
ALAMOSA        MOCLDY    48  31  51 N6        29.96R
LA VETA PASS   CLOUDY    34  32  93 SW7       30.03S WCI  28
SAGUACHE       MOCLDY    46  28  49 NW7       29.98R
$$

COZ035-036-038>040-270300-
...NORTHERN COLORADO FRONT RANGE...

CITY           SKY/WX    TMP DP  RH WIND       PRES   REMARKS
DENVER INTL AP CLOUDY    46  44  93 SW7       29.93S
DMNS CITY PARK   N/A     48  46  92 E9        29.92F
AURORA         LGT RAIN  46  46  99 S3        29.94F
FRONT RANGE AP LGT RAIN  46  45  93 SE5       29.95R
ERIE MUNI ARPT CLOUDY    50  45  84 CALM      29.92S
BOULDER MUN AP CLOUDY    52  43  71 S3        29.91S
CENTENNIAL     LGT RAIN  46  43  89 S5        29.94F
BROOMFIELD     CLOUDY    48  45  87 S6        29.93F
FORT COLLINS   FAIR      52  43  71 N3        29.92R
LONGMONT       CLOUDY    53  45  73 S3        29.93R
$$

COZ041-046-047-076>085-087-088-270300-
...PIKES PEAK/PALMER DIVIDE AND SOUTHERN FOOTHILLS...

CITY           SKY/WX    TMP DP  RH WIND       PRES   REMARKS
COLO. SPRINGS  MOCLDY    45  41  86 N16       29.93F
A. F. ACADEMY  MOCLDY    43  43 100 N8        29.94F
SCHRIEVER AFB  NOT AVBL
ELLICOTT       FAIR     N/A N/A N/A N24G43    29.84F
FALCON         CLOUDY    39  37  92 N14G24    29.94F
FORT CARSON    MOCLDY    46  42  85 N16       29.89F
LIMON          LGT RAIN  41  40  96 NW12      29.96F
MONUMENT HILL  LGT RAIN  37  36  93 E8        29.99F
TRINIDAD       CLOUDY    58  33  39 NW13      29.85R
$$

COZ042>045-048>051-090-091-270300-
...NORTHEAST COLORADO...

CITY           SKY/WX    TMP DP  RH WIND       PRES   REMARKS
GREELEY ARPT   FAIR      50  46  87 NW5       29.93R
AKRON          RAIN      49  46  90 W14       29.90R
BURLINGTON     CLOUDY    49  42  77 NW40G58   29.76F
WRAY           NOT AVBL
STERLING       TSTM      54  46  76 NW8       29.83R
HOLYOKE        NOT AVBL
FORT MORGAN    TSTM      49  46  88 W7        29.89R
$$

COZ086-089-092>099-270300-
...SOUTHEAST COLORADO...

CITY           SKY/WX    TMP DP  RH WIND       PRES   REMARKS
PUEBLO         FAIR      56  40  55 N22G37    29.83R
LA JUNTA       FAIR      56  46  69 W22G30    29.78R
LAMAR          FAIR      58  43  57 N17       29.69R
SPRINGFIELD      N/A     57  42  57 NW17      29.74R
$$



USA.gov is the U.S. government's official web portal to all federal, state and local government web resources and services.